Location: Lake of the Woods (North-East)
(49.6672°N, 94.8656°W)
Time: 12:19:25
(UTC-06:00)

ISS - All Passes

Search period start: 27 November 2014 00:00
Search period end: 07 December 2014 00:00
Orbit: 407 x 417 km, 51.6° (Epoch: 27 November)

Date Brightness Start Highest point End Pass type
(mag) Time Alt. Az. Time Alt. Az. Time Alt. Az.
27 Nov - 00:53:53 10° WSW 00:57:11 79° SSE 01:00:29 10° ENE night (unlit)
27 Nov - 02:30:41 10° W 02:33:57 58° N 02:37:13 10° E night (unlit)
27 Nov - 04:07:26 10° WNW 04:10:44 84° SSW 04:14:02 10° ESE visible
27 Nov - 05:44:28 10° W 05:47:03 21° SW 05:49:38 10° SSE visible
27 Nov - 22:29:51 10° SSE 22:31:19 12° SE 22:32:46 10° ESE night (unlit)
28 Nov - 00:04:10 10° SW 00:07:24 56° SSE 00:10:38 10° ENE night (unlit)
28 Nov - 01:40:48 10° W 01:44:04 61° N 01:47:20 10° ENE night (unlit)
28 Nov - 03:17:36 10° WNW 03:20:54 76° NNE 03:24:12 10° E night (unlit)
28 Nov - 04:54:24 10° W 04:57:23 32° SSW 05:00:21 10° SSE visible
28 Nov - 23:14:33 10° SW 23:17:37 38° SSE 23:20:43 10° E night (unlit)
29 Nov - 00:50:53 10° W 00:54:10 70° NNW 00:57:27 10° ENE night (unlit)
29 Nov - 02:27:43 10° WNW 02:31:00 64° N 02:34:17 10° E night (unlit)
29 Nov - 04:04:26 10° WNW 04:07:37 48° SSW 04:10:48 10° SE visible
29 Nov - 05:43:16 10° SW 05:43:37 10° SW 05:43:58 10° SW visible
29 Nov - 22:25:06 10° SSW 22:27:52 25° SE 22:30:39 10° E night (unlit)
30 Nov - 00:00:57 10° WSW 00:04:15 87° NNW 00:07:33 10° ENE night (unlit)
30 Nov - 01:37:47 10° WNW 01:41:03 59° N 01:44:19 10° E night (unlit)
30 Nov - 03:14:30 10° WNW 03:17:47 69° SSW 03:21:04 10° ESE night (unlit)
30 Nov - 04:51:51 10° W 04:53:58 16° SW 04:56:06 10° S visible
30 Nov - 21:35:57 10° S 21:38:08 17° SE 21:40:20 10° E night (unlit)
30 Nov - 23:11:04 10° WSW 23:14:20 71° SSE 23:17:38 10° ENE night (unlit)
01 Dec - 00:47:48 10° W 00:51:04 59° N 00:54:20 10° ENE night (unlit)
01 Dec - 02:24:34 10° WNW 02:27:52 88° NNE 02:31:10 10° ESE night (unlit)
01 Dec - 04:01:29 10° W 04:04:14 25° SW 04:06:59 10° SSE night (unlit)
01 Dec - 20:47:45 10° SSE 20:48:26 11° SE 20:49:07 10° ESE night (unlit)
01 Dec - 22:21:15 10° SW 22:24:26 49° SSE 22:27:38 10° ENE night (unlit)
01 Dec - 23:57:47 10° W 00:01:04 64° N 00:04:20 10° ENE night (unlit)
02 Dec - 01:34:36 10° WNW 01:37:53 71° NNE 01:41:11 10° E night (unlit)
02 Dec - 03:11:21 10° W 03:14:25 37° SSW 03:17:29 10° SE night (unlit)
02 Dec - 21:31:34 10° SSW 21:34:33 33° SSE 21:37:33 10° E night (unlit)
02 Dec - 23:07:44 10° W 23:11:02 75° NNW 23:14:20 10° ENE night (unlit)
03 Dec - 00:44:35 10° WNW 00:47:51 62° N 00:51:08 10° E night (unlit)
03 Dec - 02:21:16 10° WNW 02:24:30 55° SSW 02:27:44 10° SE night (unlit)
03 Dec - 03:59:12 10° WSW 04:00:34 12° SW 04:01:56 10° SSW night (unlit)
03 Dec - 20:42:05 10° SSW 20:44:41 22° SE 20:47:18 10° E night (unlit)
03 Dec - 22:17:42 10° WSW 22:21:00 86° SSE 22:24:18 10° ENE night (unlit)
03 Dec - 23:54:31 10° W 23:57:46 58° N 00:01:02 10° E night (unlit)
04 Dec - 01:31:13 10° WNW 01:34:31 78° SSW 01:37:49 10° ESE night (unlit)
04 Dec - 03:08:22 10° W 03:10:46 19° SW 03:13:10 10° S night (unlit)
04 Dec - 19:53:00 10° S 19:54:51 14° SE 19:56:41 10° ESE night (unlit)
04 Dec - 21:27:43 10° WSW 21:30:58 62° SSE 21:34:14 10° ENE night (unlit)
04 Dec - 23:04:23 10° W 23:07:39 60° N 23:10:56 10° ENE night (unlit)
05 Dec - 00:41:10 10° WNW 00:44:28 81° NNE 00:47:46 10° ESE night (unlit)
05 Dec - 02:18:00 10° W 02:20:53 28° SW 02:23:46 10° SSE night (unlit)
05 Dec - 20:37:49 10° SW 20:40:57 42° SSE 20:44:06 10° ENE night (unlit)
05 Dec - 22:14:14 10° W 22:17:31 67° N 22:20:48 10° ENE night (unlit)
05 Dec - 23:51:03 10° WNW 23:54:21 67° N 23:57:37 10° E night (unlit)
06 Dec - 01:27:46 10° WNW 01:30:55 43° SSW 01:34:03 10° SE night (unlit)
06 Dec - 19:48:04 10° SSW 19:50:57 28° SE 19:53:50 10° E visible
06 Dec - 21:24:04 10° WSW 21:27:22 82° NNW 21:30:40 10° ENE night (unlit)
06 Dec - 23:00:54 10° WNW 23:04:10 60° N 23:07:26 10° E night (unlit)
